{"data":{"norad_id":51893,"epoch":"2026-05-25T01:05:13.845696Z","epoch_age_seconds":71875,"freshness":"FRESH","line1":"1 51893U 22022AT  26145.04529914  .00001898  00000+0  13722-3 0  9999","line2":"2 51893  53.2178  16.3472 0001303  88.0485 272.0657 15.08860311234839","mean_motion":15.08860311,"eccentricity":0.0001303,"inclination_deg":53.2178,"raan_deg":16.3472,"arg_perigee_deg":88.0485,"mean_anomaly_deg":272.0657,"bstar":0.00013722,"rev_number":23483,"period_min":95.436269978209,"perigee_km":538.77991533365,"apogee_km":540.58269878447,"semimajor_km":6917.8183070591,"source":"CELESTRAK","updated_at":"2026-05-25T13:38:16.989081Z"}}